ECMWFNIL_925_temp_000.txt.gz
Temp
10 10 10 10 10 10 10 9 9 9 9 9 9 9 9 9 9 8 8 9 9 9 9 9 10 11 12 12 13 13 14 15 15 15 15 15 15 15 15 15 15 15
10 9 9 9 10 9 9 9 8 8 9 9 9 9 9 8 8 8 8 8 8 8 9 9 9 10 11 12 12 13 14 14 15 15 15 15 15 15 15 15 15 15
9 9 9 9 9 9 8 8 8 8 8 9 9 9 9 8 8 8 8 8 8 8 8 8 9 9 10 11 12 13 13 14 15 15 15 15 15 15 15 15 15 15
9 9 9 9 9 8 8 8 8 8 8 8 8 8 8 8 8 8 8 8 8 8 8 7 8 8 9 10 11 12 13 13 14 15 15 16 15 15 15 15 15 15
9 9 9 9 8 8 8 8 8 8 8 8 8 8 8 8 8 8 8 8 8 7 7 7 7 8 8 9 10 11 12 13 14 15 15 16 16 16 16 15 15 15
9 9 9 9 8 8 8 8 8 8 8 8 8 8 8 8 8 7 7 7 7 7 7 7 7 7 8 9 9 10 11 12 13 14 15 16 16 16 16 16 16 16
9 9 9 9 9 8 8 8 8 8 8 8 8 8 8 7 7 7 7 7 7 7 7 7 7 7 7 8 9 10 11 12 13 13 14 15 16 16 16 16 16 16
9 9 9 9 9 8 8 8 9 8 8 8 7 7 7 7 7 7 7 6 6 6 6 6 7 7 7 7 8 8 9 10 12 13 13 14 15 16 17 17 17 16
9 9 9 9 9 8 9 9 9 8 8 8 7 7 7 7 7 6 6 6 6 6 6 6 6 6 6 6 7 7 8 9 10 11 12 13 14 15 16 16 17 17
9 9 9 9 9 9 9 9 8 8 8 8 7 7 7 7 7 6 6 6 6 6 6 6 6 6 6 6 6 7 7 8 8 10 11 12 13 14 15 16 17 17
9 9 9 9 9 9 9 9 8 8 8 8 7 7 6 6 6 6 6 6 6 5 5 5 5 5 6 6 6 6 7 7 8 9 10 11 12 13 14 15 16 16
9 9 9 9 9 9 8 8 8 8 8 7 7 6 6 6 6 6 6 6 5 5 5 5 5 5 5 5 5 5 6 6 7 8 9 10 11 12 13 14 15 16
9 9 9 9 8 8 8 8 8 7 7 7 7 7 7 7 6 6 6 5 5 5 5 5 5 5 5 5 5 5 5 6 7 8 9 10 11 11 12 13 14 15
9 9 9 8 8 8 8 7 7 7 7 7 7 7 6 6 6 6 5 5 5 5 5 5 5 5 5 5 5 5 5 6 6 7 8 9 10 11 12 13 14 14
9 9 9 8 8 7 7 7 7 7 7 7 7 7 6 6 6 6 5 5 5 5 5 5 5 5 5 5 5 5 5 6 6 7 7 8 10 11 12 13 13 14
9 9 9 8 7 7 7 7 7 7 7 7 7 7 6 6 6 6 5 5 5 5 5 4 5 5 5 5 4 4 5 6 6 7 7 8 9 11 12 13 13 14
9 9 8 8 7 6 7 7 7 7 7 6 6 6 6 6 6 5 5 5 5 5 4 4 4 4 4 4 4 4 4 5 6 7 7 8 9 10 12 13 14 14
9 9 8 7 7 7 7 7 7 7 6 6 6 6 5 5 5 5 5 5 5 5 4 4 4 4 4 4 4 4 4 4 5 6 7 8 9 10 12 13 14 14
9 8 8 7 7 7 7 7 7 6 6 5 5 5 5 5 5 5 5 5 4 4 4 4 4 4 4 4 4 4 4 4 4 4 6 7 8 10 11 13 14 14
9 8 7 7 7 7 7 7 6 6 5 5 5 4 4 4 4 4 4 4 4 4 4 4 4 4 4 4 4 4 4 3 3 4 5 6 7 9 10 12 13 14
8 8 7 7 7 7 7 7 6 5 5 4 4 4 4 3 3 3 3 3 3 3 3 3 4 4 4 4 4 4 4 3 3 3 4 5 7 8 9 10 12 14
8 8 7 7 7 7 7 7 6 5 5 4 4 4 3 3 3 3 3 3 3 3 3 4 4 4 4 4 4 4 4 3 3 4 4 5 6 7 8 9 10 12
8 8 7 7 7 7 7 6 5 5 4 4 4 3 3 3 3 3 3 3 3 3 3 3 4 4 4 4 4 4 4 4 3 4 4 5 6 7 8 9 10 12
8 8 7 7 7 7 6 5 5 5 5 4 4 4 3 3 3 3 3 2 2 3 3 3 3 3 3 3 4 4 4 4 4 4 5 5 6 6 7 9 10 11
8 8 7 7 7 6 5 5 5 5 5 4 4 3 3 3 3 3 2 2 2 2 2 2 3 3 3 3 4 4 4 4 4 4 5 6 6 7 8 8 10 11
8 8 7 7 6 6 5 5 4 4 4 4 3 3 3 3 3 2 2 2 2 2 2 2 2 3 4 4 4 4 3 4 4 5 5 6 7 8 8 9 10 11

ECMWFNIL_925_temp_006.txt.gz
Temp
15 15 15 15 15 15 15 15 15 15 14 14 14 14 14 14 13 13 13 12 12 12 12 12 12 12 12 12 12 12 12 12 13 13 14 14 15 15 16 16 16 15
15 15 15 15 15 15 15 14 14 14 14 14 13 13 13 13 13 13 12 12 12 11 11 11 11 11 11 11 11 11 12 12 12 13 13 14 14 15 15 16 16 16
15 15 15 15 15 15 14 14 14 13 13 13 13 13 13 13 12 12 12 11 11 11 11 11 11 11 11 11 11 11 11 11 12 12 12 13 13 14 15 15 16 16
14 14 14 14 14 14 14 13 13 13 13 13 13 12 12 12 12 12 11 11 11 11 11 11 11 11 11 11 11 11 11 11 11 11 12 12 12 13 14 15 15 16
14 14 14 14 14 14 13 13 13 13 13 13 12 12 12 12 12 11 11 11 11 11 11 11 11 11 11 10 10 10 10 10 10 11 11 11 12 12 13 14 15 15
14 14 14 13 13 13 13 13 13 13 12 12 12 12 12 11 11 11 11 11 11 11 11 11 11 11 11 10 10 10 10 10 10 10 10 11 11 12 13 14 14 15
14 14 13 13 13 13 13 13 12 12 12 12 12 12 11 11 11 11 11 11 11 11 11 11 11 11 10 10 10 10 10 10 10 10 10 10 11 12 12 13 14 14
14 13 13 13 13 13 12 12 12 12 12 12 12 11 12 12 12 11 11 11 11 11 11 10 10 10 10 10 10 9 9 9 9 9 9 9 10 11 11 12 13 14
14 13 13 13 13 13 12 12 12 12 12 12 11 11 12 12 12 11 11 11 11 11 11 11 10 10 10 10 9 9 9 9 9 9 9 9 9 10 10 11 12 12
14 13 13 13 13 12 12 12 12 12 12 12 11 12 12 12 12 11 11 11 11 11 11 10 10 10 10 9 9 9 9 9 9 9 9 9 9 9 10 10 11 11
14 13 13 13 12 12 12 12 12 12 12 12 11 11 11 11 11 11 11 11 11 10 10 10 10 10 9 9 9 9 9 9 9 8 9 9 9 9 9 10 10 11
13 13 13 13 13 12 12 12 12 12 12 11 11 11 11 11 11 11 11 11 10 10 10 10 10 9 9 9 9 9 9 9 9 8 8 8 8 9 9 9 9 10
13 13 13 13 13 12 12 12 12 11 11 11 11 11 11 11 11 10 10 10 10 10 10 9 9 9 9 9 9 9 9 9 8 8 8 8 8 8 8 9 9 9
13 13 13 13 12 12 12 12 11 11 11 11 11 10 10 10 10 10 10 10 9 9 9 9 9 9 9 9 9 9 9 8 8 8 8 8 8 8 8 8 8 8
14 13 13 13 12 12 12 12 11 11 11 10 10 10 10 10 10 9 9 9 9 9 9 9 9 8 8 8 8 8 8 8 8 8 8 8 8 8 8 8 8 8
14 13 13 12 12 12 12 11 11 11 10 10 10 10 10 10 9 9 9 9 8 8 8 8 8 8 8 8 8 8 8 8 8 8 8 8 8 8 8 8 8 8
14 13 13 12 12 12 12 11 11 11 10 10 10 10 10 10 9 9 8 8 8 8 8 8 8 8 8 8 8 8 8 7 7 7 7 7 7 7 7 7 8 8
14 13 13 13 12 12 12 12 11 11 10 10 10 10 10 9 9 8 8 8 7 7 7 7 7 7 7 7 7 7 7 7 7 6 7 7 7 6 6 6 7 7
13 13 13 13 12 12 12 12 11 10 10 10 10 10 10 9 8 8 8 7 7 7 7 7 6 6 6 6 6 6 6 6 6 6 6 6 6 6 6 6 6 6
13 13 13 13 12 12 12 11 11 10 10 10 10 10 9 8 8 8 7 7 7 7 6 6 6 6 6 6 6 6 6 5 5 5 5 5 5 6 6 6 6 6
13 13 13 12 12 12 12 11 10 10 10 10 10 9 8 8 7 7 7 7 7 7 6 6 6 6 6 6 6 6 5 5 5 5 5 4 5 5 5 5 6 6
13 13 12 12 12 12 11 11 10 10 10 10 10 9 8 7 7 7 7 7 7 6 6 6 6 6 6 6 6 5 5 5 5 4 4 4 4 4 5 5 5 5
13 13 12 12 12 12 11 11 11 10 10 10 9 8 7 7 7 6 6 6 6 6 6 6 6 6 6 5 5 5 5 4 4 4 4 4 4 4 4 4 4 5
13 12 12 12 12 12 11 11 10 10 9 9 8 7 7 6 6 6 6 6 6 6 6 5 5 5 5 5 5 4 4 4 4 4 4 4 4 4 4 4 4 4
13 12 12 12 11 11 11 10 10 9 9 9 8 7 6 6 6 5 5 5 5 5 5 5 5 5 5 4 4 4 4 4 4 3 3 3 3 3 4 4 4 4
12 12 12 11 11 11 10 10 9 9 9 8 7 6 6 5 5 5 5 5 5 4 4 4 4 4 4 4 4 4 3 3 3 3 3 3 3 3 3 4 4 4

ECMWFNIL_925_temp_009.txt.gz
Temp
16 16 16 16 16 15 15 15 15 15 14 14 14 14 14 14 14 14 14 13 13 13 13 12 12 12 12 12 11 11 11 11 11 11 12 12 12 13 13 13 14 14
16 16 16 16 15 15 15 15 15 15 14 14 14 14 14 14 14 13 13 13 13 12 12 12 11 11 11 11 11 11 11 11 11 11 11 11 11 12 12 12 13 13
16 16 15 15 15 15 15 15 15 14 14 14 14 14 13 13 13 13 13 12 12 12 12 11 11 11 11 11 11 11 10 10 10 10 10 11 11 11 11 12 12 12
16 15 15 15 15 15 15 15 14 14 14 14 14 13 13 13 13 12 12 12 12 11 11 11 11 11 11 11 11 10 10 10 10 10 10 10 10 10 11 11 11 12
15 15 15 15 15 15 15 14 14 14 14 14 13 13 13 13 12 12 12 12 11 11 11 11 11 11 11 11 11 10 10 10 10 10 10 10 10 10 10 10 11 11
15 15 15 15 15 14 14 14 14 14 14 13 13 13 12 12 12 12 12 11 11 11 11 11 11 11 11 10 10 10 10 10 10 10 9 9 9 9 9 9 10 10
15 15 15 14 14 14 14 14 14 13 13 13 13 12 12 12 12 12 11 11 11 11 11 11 11 11 10 10 10 10 10 10 10 9 9 9 9 9 9 9 9 9
15 14 14 14 14 14 14 13 13 13 13 12 12 12 12 12 12 11 11 11 11 11 11 11 11 11 10 10 10 10 10 9 9 9 9 9 9 9 9 9 9 9
15 14 14 14 14 14 13 13 13 13 12 12 12 12 12 12 11 11 11 11 11 11 11 11 11 11 10 10 10 10 10 9 9 9 9 9 9 8 8 8 8 9
14 14 14 13 13 13 13 13 13 13 12 12 12 12 11 11 11 11 11 11 11 11 11 11 11 10 10 10 10 10 9 9 9 9 9 9 8 8 8 8 8 8
14 14 14 13 13 13 13 13 12 12 12 12 12 12 11 11 11 11 11 11 11 11 10 10 10 10 10 10 10 9 9 9 9 9 9 9 9 8 8 8 8 8
14 14 13 13 13 13 13 12 12 12 12 12 12 11 11 11 11 11 11 11 10 10 10 10 9 9 9 9 9 9 9 9 9 9 9 9 8 8 8 8 8 8
14 13 13 13 13 13 12 12 12 12 12 12 11 11 11 11 11 11 10 10 10 10 10 9 9 9 9 9 9 9 9 9 9 8 8 8 8 8 8 8 8 8
14 13 13 13 13 13 12 12 12 12 12 11 11 11 11 11 11 10 10 10 10 9 9 9 9 8 8 8 8 8 8 8 8 8 8 8 8 8 8 8 8 8
14 13 13 13 13 12 12 12 12 12 11 11 11 11 11 11 10 10 10 9 9 9 9 8 8 8 8 8 8 8 8 8 8 8 8 8 8 8 8 8 8 8
13 13 13 13 13 12 12 12 12 12 11 11 11 11 11 10 10 10 10 9 9 9 8 8 8 8 7 7 7 7 7 7 7 7 7 7 7 7 7 7 7 7
13 13 13 13 13 12 12 12 12 11 11 11 11 11 10 10 10 10 9 9 9 8 8 8 7 7 7 7 7 7 7 6 6 6 6 6 6 6 6 6 7 7
13 13 13 13 12 12 12 12 11 11 11 11 11 10 10 10 10 9 9 8 8 8 7 7 7 7 7 7 7 6 6 6 6 6 6 5 5 5 5 5 6 6
13 13 13 12 12 12 12 12 11 11 11 11 10 10 10 10 9 9 8 8 7 7 7 7 7 7 7 6 6 6 6 6 6 6 6 6 5 5 5 5 5 5
13 13 13 12 12 12 12 12 11 11 11 11 10 10 10 9 9 8 8 7 7 7 7 6 6 6 6 6 6 6 6 6 6 6 5 5 5 5 5 5 5 5
13 13 13 13 12 12 12 12 11 11 11 10 10 10 9 8 8 7 7 7 6 6 6 6 6 6 6 6 6 6 5 5 5 5 5 4 4 4 4 4 4 4
13 13 13 13 12 12 12 12 11 11 11 10 10 9 8 8 7 7 6 6 6 6 5 5 5 5 5 5 5 5 5 5 5 4 4 4 4 4 4 4 4 4
13 13 13 13 12 12 12 11 11 11 10 9 9 8 8 7 7 7 6 6 6 5 5 5 5 5 5 5 4 4 4 4 4 4 4 4 3 3 3 3 3 4
13 13 13 12 12 12 11 11 10 10 9 9 9 8 8 7 7 6 6 6 5 5 5 5 5 4 4 4 4 4 4 4 4 3 3 3 3 3 3 3 3 3
13 13 12 12 11 11 11 10 10 9 9 9 8 8 7 7 6 6 6 6 6 5 5 4 4 4 4 4 4 4 4 3 3 3 2 2 2 2 2 2 2 3
13 12 12 12 11 11 10 10 10 9 9 9 8 8 7 7 7 6 6 6 5 5 4 4 4 4 4 3 3 3 3 3 3 2 2 2 2 2 2 2 2 2

ECMWFNIL_925_temp_012.txt.gz
Temp
17 17 17 17 16 17 16 16 16 16 16 15 15 14 14 14 14 14 13 13 13 13 13 13 13 13 12 12 12 12 11 11 11 11 11 10 10 10 10 10 10 11
17 17 17 16 16 16 16 16 16 16 15 15 15 14 14 14 14 14 14 14 13 13 13 13 12 12 12 11 11 11 11 11 11 10 10 10 10 10 10 10 10 10
17 17 16 16 16 16 16 16 15 15 15 15 14 14 14 14 14 14 14 14 13 13 12 12 12 11 11 11 11 11 11 10 10 10 10 10 10 10 9 9 9 9
17 17 16 16 16 16 16 15 15 15 15 14 14 14 14 14 14 14 13 13 13 12 12 12 11 11 11 11 11 10 10 10 10 10 10 10 10 9 9 9 9 9
17 17 16 16 16 16 15 15 15 14 14 14 14 14 14 13 13 13 13 12 12 12 12 11 11 11 11 11 11 10 10 10 10 10 10 10 9 9 9 9 9 9
17 17 16 16 16 15 15 15 15 14 14 14 14 13 13 13 13 13 12 12 12 12 11 11 11 11 11 11 10 10 10 10 10 10 10 9 9 9 9 9 9 8
17 17 16 16 15 15 15 15 15 14 14 14 14 13 13 13 13 12 12 12 11 11 11 11 11 11 11 10 10 10 10 10 10 9 9 9 9 9 9 8 8 8
17 16 16 16 15 15 15 15 14 14 14 14 13 13 13 13 12 12 12 11 11 11 11 11 11 11 11 10 10 10 10 10 9 9 9 9 9 9 9 8 8 8
16 16 16 15 15 15 14 14 14 14 14 13 13 13 13 12 12 12 11 11 11 11 11 11 11 10 10 10 10 10 10 9 9 9 9 9 9 9 8 8 8 8
16 16 16 15 15 14 14 14 14 14 13 13 13 13 12 12 12 11 11 11 11 11 11 10 10 10 10 10 9 9 9 9 9 9 9 9 9 8 8 8 8 8
16 15 15 15 14 14 14 14 14 13 13 13 13 12 12 12 11 11 11 11 11 10 10 10 10 10 9 9 9 9 9 8 8 8 8 8 8 8 8 8 8 8
15 15 15 15 14 14 14 14 13 13 13 13 12 12 12 11 11 11 11 11 10 10 10 10 9 9 9 9 9 8 8 8 8 8 8 8 8 8 8 8 8 8
15 15 15 14 14 14 14 13 13 13 13 13 12 12 11 11 11 11 11 10 10 10 10 9 9 9 9 9 8 8 8 8 7 7 7 7 7 8 8 8 8 8
15 15 15 14 14 14 13 13 13 13 12 12 12 12 11 11 11 11 11 10 10 10 9 9 9 9 9 8 8 8 8 7 7 7 7 7 7 7 7 7 7 7
14 14 14 14 14 13 13 13 13 12 12 12 12 11 11 11 11 11 10 10 10 9 9 9 9 8 8 8 8 7 7 7 7 7 6 6 6 6 6 6 6 6
13 13 13 13 13 13 13 13 12 12 12 12 11 11 11 11 11 10 10 10 9 9 9 8 8 8 8 7 7 7 7 7 6 6 6 6 6 6 6 6 6 6
12 13 13 13 13 13 13 12 12 12 12 12 11 11 11 11 10 10 10 9 9 8 8 8 8 7 7 7 7 6 6 6 6 6 6 6 6 6 6 6 5 5
13 13 13 13 13 13 12 12 12 12 12 11 11 11 11 10 10 10 9 9 8 8 7 7 7 7 7 6 6 6 6 6 6 6 6 6 6 5 5 5 5 5
13 13 13 13 13 12 12 12 12 12 12 11 11 11 10 10 10 9 8 8 8 7 7 7 7 6 6 6 6 5 5 5 5 5 5 5 5 5 5 5 5 5
13 13 13 13 12 12 12 12 12 12 12 11 11 10 10 10 9 8 8 8 7 7 7 6 6 6 6 5 5 5 5 5 5 5 4 4 4 4 4 4 4 4
12 12 12 12 12 12 12 12 12 12 11 11 10 10 10 9 8 8 8 8 7 7 6 6 6 6 5 5 5 5 4 4 4 4 4 4 4 4 4 4 4 4
12 12 12 12 12 12 12 12 12 11 11 10 10 9 9 8 8 8 8 7 7 7 7 6 6 6 5 5 5 4 4 4 4 4 4 4 4 3 3 3 3 3
12 12 11 11 12 12 12 11 11 11 10 10 9 9 8 8 8 8 8 7 7 7 7 6 6 6 5 5 4 4 4 4 4 4 3 3 3 3 3 3 3 3
12 11 11 11 11 11 11 10 10 10 10 9 9 9 8 8 8 8 8 8 7 7 6 6 6 5 5 4 4 4 4 3 3 3 3 3 3 3 2 2 2 2
11 11 11 10 10 10 10 10 10 10 9 9 9 9 8 8 8 8 8 7 7 6 6 5 5 5 4 4 4 3 3 3 3 2 2 2 2 2 2 2 2 2
11 10 10 10 10 10 10 10 10 9 9 9 9 9 9 8 8 8 7 7 6 5 5 5 4 4 4 3 3 3 2 2 2 1 1 1 1 1 1 1 1 1

ECMWFNIL_925_temp_015.txt.gz
Temp
18 17 17 17 17 17 17 17 17 16 16 16 16 16 15 15 14 14 14 13 13 13 13 13 13 12 12 12 12 11 11 10 10 10 10 10 10 10 9 9 9 9
17 17 17 17 17 17 17 17 17 16 16 16 16 16 15 14 14 14 14 13 13 13 13 12 12 12 12 12 11 11 11 10 10 10 10 10 10 9 9 9 9 9
17 17 17 17 17 17 17 16 16 16 16 16 16 15 15 14 14 14 13 13 13 13 13 12 12 12 12 11 11 11 10 10 10 10 10 10 10 9 9 9 9 9
17 17 17 17 17 17 17 16 16 16 16 16 16 15 15 14 14 14 13 13 13 13 13 12 12 12 11 11 11 10 10 10 10 10 10 10 9 9 9 9 9 8
17 17 17 17 17 17 16 16 16 16 16 15 15 15 15 14 14 14 13 13 13 13 12 12 12 11 11 11 11 10 10 10 10 10 10 9 9 9 9 9 9 8
17 17 17 17 17 16 16 16 16 16 16 15 15 15 15 14 14 14 14 13 13 12 12 12 11 11 11 11 10 10 10 10 10 10 10 9 9 9 9 9 8 8
17 17 17 17 17 16 16 16 16 16 15 15 15 14 14 14 14 14 13 13 12 12 12 11 11 11 11 10 10 10 10 10 10 9 9 9 9 9 9 9 8 8
17 17 17 17 17 16 16 16 16 15 15 15 14 14 14 14 13 13 13 12 12 12 11 11 11 11 10 10 10 10 10 9 9 9 9 9 9 9 9 8 8 8
17 17 17 17 16 16 16 15 15 15 15 14 14 14 14 13 13 13 12 12 11 11 11 11 11 10 10 10 10 10 9 9 9 9 8 8 8 8 8 8 8 8
16 17 16 16 16 16 15 15 15 15 14 14 14 13 13 13 13 12 12 11 11 11 11 11 10 10 10 10 10 9 9 9 9 8 8 8 8 8 8 8 8 8
16 16 16 16 16 15 15 15 15 14 14 14 13 13 13 13 12 12 11 11 11 11 10 10 10 10 10 9 9 9 9 9 8 8 8 8 8 7 7 7 7 7
15 15 15 15 15 15 15 15 15 14 14 13 13 13 13 12 12 11 11 11 11 10 10 10 10 10 9 9 9 9 8 8 8 8 8 8 7 7 7 7 7 7
15 15 15 15 15 15 14 14 14 14 14 13 13 13 12 12 11 11 11 11 10 10 10 10 9 9 9 9 8 8 8 8 8 7 7 7 7 7 7 6 6 6
14 15 15 14 14 14 14 14 14 14 13 13 13 12 12 11 11 11 11 10 10 10 10 9 9 9 8 8 8 8 7 7 7 7 7 6 6 6 6 6 6 6
13 13 13 13 13 13 13 14 13 13 13 13 12 12 12 11 11 11 10 10 10 10 9 9 8 8 8 8 7 7 7 6 6 6 6 6 6 6 6 6 6 6
12 12 12 12 12 12 12 13 13 13 13 12 12 12 11 11 11 10 10 10 10 9 9 8 8 8 7 7 7 6 6 6 6 6 6 5 5 5 5 5 5 5
13 12 11 11 11 11 12 13 13 13 12 12 12 11 11 11 11 10 10 10 9 9 8 8 8 7 7 7 7 6 6 5 5 5 5 5 5 5 5 5 5 5
13 12 11 11 12 13 13 13 12 12 12 12 12 11 11 11 10 10 10 9 9 9 8 8 8 7 7 7 7 6 6 5 5 5 4 4 4 4 4 4 4 4
13 12 11 12 13 13 13 12 12 12 12 12 11 11 11 10 10 10 9 9 9 8 8 8 8 7 7 7 6 6 5 5 5 4 4 4 4 4 4 4 4 4
13 12 12 12 12 12 12 12 12 12 12 11 11 11 10 10 10 9 9 9 8 8 8 8 7 7 7 6 6 5 5 5 4 4 4 4 4 4 3 3 3 3
12 12 11 11 11 12 12 12 12 12 11 11 11 11 10 10 10 9 9 8 8 8 8 8 7 7 6 6 5 5 5 4 4 4 4 3 3 3 3 3 3 3
11 11 11 11 11 12 12 12 11 11 11 11 10 10 10 9 9 9 8 8 8 8 8 7 7 6 6 5 5 5 4 4 4 3 3 3 3 3 3 2 2 2
11 10 10 11 11 11 11 11 11 11 11 11 10 10 9 9 9 8 8 8 8 7 7 7 6 6 5 5 5 4 4 3 3 3 2 2 2 2 2 2 2 2
10 9 10 11 11 11 11 11 11 10 10 10 10 9 9 9 9 8 8 8 8 7 6 6 6 5 5 5 4 4 4 3 2 2 1 1 1 1 1 1 1 1
9 10 10 11 10 10 10 10 10 10 10 10 9 9 9 9 8 8 8 8 7 6 6 5 5 5 5 4 4 4 3 3 2 1 1 1 0 0 0 0 0 0
9 9 9 9 9 9 10 10 10 10 9 9 9 9 9 9 8 8 8 7 7 6 6 5 5 5 5 4 4 3 3 2 1 1 0 0 -0 -0 -0 -0 -0 -1

ECMWFNIL_925_temp_021.txt.gz
Temp
17 17 18 17 17 17 17 17 17 17 16 16 16 16 15 15 14 14 14 13 13 13 12 12 12 12 12 12 11 11 10 10 10 10 9 9 9 9 9 9 9 9
17 17 17 17 17 17 17 17 17 17 17 17 16 16 15 15 14 14 14 13 13 13 12 12 12 12 12 11 11 11 10 10 10 10 9 9 9 9 9 9 9 9
17 17 17 17 17 18 18 17 17 17 17 16 16 16 15 15 15 14 14 13 13 12 12 12 12 12 11 11 11 11 10 10 10 10 10 9 9 9 9 9 9 8
17 17 17 17 17 18 18 17 17 17 17 16 16 16 15 15 15 14 14 13 13 12 12 12 12 11 11 11 11 10 10 10 10 10 9 9 9 9 9 9 9 8
17 17 17 17 17 17 17 17 17 17 17 17 16 16 15 15 14 14 14 13 13 13 12 12 12 11 11 11 10 10 10 10 10 9 9 9 9 9 9 9 9 8
16 16 17 17 17 17 17 17 17 17 17 17 16 16 15 15 14 14 14 13 13 12 12 12 12 11 11 11 10 10 10 10 10 9 9 9 9 9 8 8 8 8
15 16 16 17 17 17 17 17 17 17 17 16 16 16 16 15 15 14 14 13 13 12 12 12 12 11 11 11 10 10 10 10 10 9 9 9 9 9 8 8 8 8
16 16 16 16 16 17 17 17 17 17 17 16 16 16 16 15 15 14 14 13 13 12 12 12 12 11 11 11 10 10 10 10 9 9 9 9 9 9 8 8 8 8
16 16 16 16 16 16 16 16 16 17 17 16 16 16 15 15 15 14 14 13 13 12 12 12 11 11 11 10 10 10 9 9 9 9 9 8 8 8 8 8 8 8
15 15 15 15 15 15 15 16 16 16 16 16 15 15 15 15 15 14 14 13 13 12 12 12 11 11 11 10 10 10 9 9 9 8 8 8 8 8 8 8 8 8
14 14 14 14 14 14 15 15 15 15 15 15 14 14 15 15 14 14 14 13 13 12 12 12 11 11 11 10 10 10 9 9 8 8 8 8 8 7 7 7 7 7
14 14 14 14 13 14 14 14 14 14 14 14 13 13 13 14 14 14 14 13 13 12 12 12 11 11 10 10 10 9 9 8 8 8 8 7 7 7 7 7 7 7
14 14 14 14 14 14 14 14 14 14 13 13 12 12 12 13 13 13 13 13 12 12 12 12 11 11 10 10 10 9 9 8 8 8 7 7 7 7 7 6 6 6
13 13 14 14 14 13 13 13 13 13 12 11 11 11 12 13 13 13 13 12 12 12 12 11 11 10 10 10 9 9 8 8 8 7 7 7 7 7 6 6 6 6
12 12 13 13 13 13 13 13 12 11 11 11 11 12 12 12 12 12 12 12 12 12 12 11 11 10 10 10 9 9 8 8 7 7 7 6 6 6 6 6 6 6
12 12 12 12 12 13 13 13 12 11 12 12 12 12 12 12 12 12 12 12 12 12 11 11 10 10 10 10 9 8 8 7 7 7 6 6 6 6 6 5 5 5
12 12 12 12 12 12 12 12 12 12 12 12 11 12 12 12 12 12 12 12 12 11 11 10 10 10 10 9 8 8 7 7 6 6 5 5 5 5 5 5 5 5
12 12 11 11 11 11 11 12 12 12 11 11 11 11 12 12 12 12 12 11 11 11 10 10 10 9 9 8 8 7 7 6 6 5 5 5 5 5 5 5 5 5
12 12 11 11 11 11 11 11 11 11 11 11 11 11 11 11 11 11 11 11 10 10 10 9 9 8 8 7 7 6 6 6 5 5 5 5 5 5 4 4 4 4
11 11 11 11 10 10 10 10 10 10 11 11 11 11 10 10 10 10 10 10 10 10 10 9 8 8 7 7 6 6 5 5 5 5 5 4 4 4 4 3 3 3
10 10 10 10 10 10 10 10 10 10 11 11 10 10 10 10 10 10 10 10 10 10 9 8 7 7 6 6 6 5 5 5 5 5 4 4 4 4 3 3 3 3
9 10 10 10 9 9 9 10 10 10 10 10 10 10 9 9 10 10 10 10 9 9 8 7 7 6 6 6 6 5 5 5 5 4 4 4 4 3 3 3 2 2
9 9 9 9 9 9 9 10 10 10 10 10 9 9 8 9 9 9 9 9 9 8 8 7 6 6 6 6 5 5 5 5 4 4 4 4 3 3 3 2 2 2
9 9 9 9 9 9 9 9 10 9 9 9 9 8 8 8 8 8 8 8 8 8 7 7 6 6 6 6 5 5 5 5 4 4 4 4 3 3 3 2 2 2
9 9 9 9 9 9 9 9 9 9 9 8 8 8 7 7 7 8 8 8 7 7 7 7 6 6 6 6 5 5 5 4 4 4 4 4 3 3 3 2 2 2
8 8 8 8 9 9 9 9 8 8 8 7 7 6 6 6 7 8 7 7 7 7 7 7 6 6 6 5 5 5 4 4 4 4 4 4 3 3 2 2 2 2

ECMWFNIL_925_temp_024.txt.gz
Temp
18 18 18 18 18 18 18 18 18 17 17 17 17 17 16 16 15 14 14 14 14 14 13 13 13 13 13 13 13 13 13 13 12 12 12 12 12 11 11 11 12 12
17 17 18 18 18 18 18 18 18 17 17 17 17 17 16 16 15 14 14 14 14 14 13 13 13 13 13 13 13 13 13 12 12 12 12 12 12 11 11 11 11 11
17 17 17 18 18 18 17 17 17 17 17 17 17 17 16 15 15 15 14 14 14 14 13 13 13 13 13 13 13 13 13 13 12 12 12 12 12 12 11 11 11 11
17 17 17 17 17 17 17 17 17 17 17 17 17 16 16 15 15 15 14 14 14 14 13 13 13 13 13 13 13 13 13 13 12 12 12 12 12 12 11 11 11 11
16 16 17 17 17 17 17 17 17 17 17 17 16 16 16 15 15 15 14 14 14 14 13 13 13 13 13 13 13 13 13 13 12 12 12 12 12 11 11 11 11 11
16 16 16 17 17 17 17 17 17 17 17 17 16 16 16 15 15 15 15 14 14 14 14 13 13 13 13 13 13 13 13 13 12 12 12 12 12 11 11 11 11 11
16 16 16 16 17 16 17 17 17 17 17 16 16 16 16 16 15 15 15 15 14 14 14 14 13 13 13 13 13 13 13 13 12 12 12 12 12 11 11 11 11 11
16 16 16 16 16 16 16 17 17 17 16 16 16 16 16 16 16 16 15 15 15 15 14 14 14 13 13 13 13 13 12 12 12 12 12 12 12 12 11 11 11 11
16 16 16 16 16 16 16 16 16 16 16 16 16 16 16 16 16 16 15 15 15 15 15 14 14 14 13 13 13 13 12 12 12 12 12 12 12 12 12 11 11 11
16 16 16 16 16 16 16 16 16 16 16 16 16 16 16 16 16 16 15 15 15 15 15 14 14 14 13 13 13 13 12 12 12 12 12 11 11 11 11 11 11 11
15 15 15 15 15 15 15 16 16 16 16 15 15 15 15 15 15 15 15 15 15 15 15 14 14 14 13 13 13 12 12 12 12 12 11 11 11 11 11 10 10 10
15 15 15 15 15 15 15 15 15 16 16 15 15 15 15 15 15 15 15 15 15 15 15 14 14 14 13 13 13 12 12 12 11 11 11 11 11 10 10 10 10 10
15 15 15 15 15 15 15 15 16 16 16 16 15 15 15 14 14 14 14 14 15 15 15 14 14 14 13 13 13 12 12 11 11 11 11 10 10 10 10 10 9 9
15 15 15 15 15 15 15 15 15 15 15 15 15 15 15 14 14 14 14 14 14 14 14 14 14 14 13 13 12 12 12 11 11 11 10 10 10 10 9 9 9 9
15 15 15 15 15 15 15 15 15 15 15 15 14 14 14 14 14 14 13 13 14 14 14 13 13 13 13 12 12 12 12 11 11 10 10 10 10 9 9 9 9 9
15 15 15 15 15 15 15 15 15 15 14 14 14 14 14 14 14 14 14 13 13 13 13 12 12 12 12 11 11 11 11 11 10 10 10 10 9 9 9 9 9 9
15 15 15 15 15 15 15 15 15 15 14 14 14 14 14 13 13 14 14 13 13 13 12 11 11 11 11 11 11 11 10 10 10 9 9 9 9 9 9 9 9 9
15 15 15 15 15 15 15 15 15 15 14 14 14 14 14 13 13 13 14 13 13 13 12 11 10 10 10 10 10 10 9 9 9 9 9 9 9 9 9 9 9 8
14 15 15 15 15 15 15 15 15 15 15 14 14 14 14 13 13 13 13 13 13 12 11 11 10 10 10 10 9 9 9 9 9 8 8 8 8 8 8 8 8 8
14 14 14 14 14 14 14 14 14 14 14 14 14 14 14 13 13 13 13 13 12 12 11 10 9 10 9 9 9 8 8 8 8 7 7 8 8 7 7 7 7 7
13 14 14 14 14 14 14 14 14 14 14 14 14 14 14 13 13 13 13 12 12 11 10 9 9 9 9 8 8 8 8 8 7 7 7 7 7 7 7 7 7 7
13 13 13 13 13 13 13 13 13 13 13 14 14 14 14 14 13 13 12 11 11 10 10 9 8 8 8 8 8 7 7 7 7 7 7 7 7 7 7 7 7 6
13 13 13 13 13 13 13 13 13 13 13 13 13 14 14 13 13 13 12 11 10 9 9 8 7 7 7 7 7 6 7 7 8 8 8 8 7 7 7 7 6 6
12 12 12 13 13 13 13 13 13 13 13 13 13 13 13 13 12 12 10 9 9 9 8 8 6 6 6 6 6 6 6 7 8 8 8 8 8 7 7 7 6 6
12 12 12 12 12 12 12 12 12 12 12 13 13 13 13 12 12 11 9 8 8 8 8 7 6 5 6 6 6 6 6 6 7 8 8 8 8 7 7 7 6 6
12 12 12 12 12 12 12 12 12 12 12 12 12 12 12 11 10 9 8 7 7 7 7 7 6 5 5 6 6 5 5 5 6 6 7 7 7 7 7 7 6 6

ECMWFNIL_925_temp_030.txt.gz
Temp
20 20 19 19 19 19 19 19 19 19 19 19 18 18 17 17 17 16 16 16 16 16 15 15 15 15 15 15 16 16 15 15 14 14 14 14 14 14 14 14 14 15
20 20 19 19 19 19 19 19 19 19 19 19 19 18 18 17 17 16 16 16 16 16 15 15 15 15 15 15 16 16 15 15 14 14 14 14 14 14 14 14 14 14
20 20 19 19 19 20 19 19 19 19 19 19 19 18 18 17 17 16 16 16 16 16 15 15 15 15 15 15 15 15 15 15 15 14 14 14 14 14 14 14 14 14
20 20 20 20 20 20 20 19 19 19 19 19 19 19 18 18 17 16 16 16 16 16 15 15 15 15 15 15 15 15 15 15 15 14 14 14 14 14 14 14 14 14
19 19 20 20 20 20 20 19 19 19 19 19 19 19 18 18 17 17 16 16 16 16 16 15 15 15 15 15 15 15 15 15 15 15 14 14 14 14 14 14 14 14
19 19 19 19 19 19 19 19 19 19 19 19 19 19 18 18 17 17 17 16 16 16 16 15 15 15 15 15 15 15 16 15 15 15 15 15 14 14 14 14 14 14
19 19 19 19 19 19 19 19 19 18 18 18 19 18 18 18 18 17 17 17 16 16 16 16 15 15 15 15 15 15 15 15 15 15 15 15 15 14 14 14 14 14
19 19 18 18 18 19 19 19 18 18 18 18 18 18 18 18 18 17 17 17 17 16 16 16 16 16 15 15 15 15 15 15 15 15 15 15 15 14 14 14 14 14
18 18 18 18 18 18 18 18 18 18 18 18 18 18 18 18 18 18 17 17 17 17 17 17 16 16 16 15 15 15 15 15 15 15 15 15 15 15 14 14 14 14
17 17 17 17 17 17 17 17 18 18 18 18 18 18 18 18 18 18 18 18 17 17 17 17 17 17 16 16 15 15 15 15 15 15 15 15 15 15 15 14 14 13
16 16 16 16 16 16 16 16 17 17 17 17 17 17 17 17 17 18 17 18 18 18 18 17 17 17 17 16 16 15 16 15 15 15 15 15 15 15 15 15 14 14
16 16 16 16 16 16 16 16 16 15 15 16 16 16 16 16 16 16 15 16 16 16 17 18 18 17 17 17 16 16 16 16 15 15 15 15 15 14 15 15 14 14
16 16 16 16 16 16 16 15 15 15 15 15 16 16 16 16 16 15 15 15 15 15 16 16 17 17 17 17 17 17 16 16 15 15 15 15 15 14 14 14 14 13
17 17 17 17 16 16 16 16 16 15 15 15 16 16 16 16 16 15 15 16 16 16 16 15 14 15 15 16 17 17 16 16 15 15 15 15 14 14 14 14 13 13
17 17 17 17 17 17 16 16 16 16 16 16 16 16 16 15 15 15 15 15 15 16 16 14 14 14 15 16 17 17 17 16 16 15 15 14 14 14 14 13 13 13
17 17 17 17 17 17 17 17 17 16 16 16 16 16 16 15 15 15 15 15 15 15 15 14 14 14 15 16 16 16 16 16 16 15 15 14 14 13 13 13 12 12
17 17 17 17 18 18 18 17 17 17 17 16 16 16 16 16 15 15 15 15 15 15 15 14 14 14 15 15 15 15 16 16 16 15 14 14 14 13 13 12 12 12
17 17 17 17 17 17 17 17 17 17 17 17 17 17 16 16 16 16 16 15 15 15 15 15 14 15 15 15 15 15 15 15 15 15 14 14 13 13 12 12 12 11
17 17 17 17 17 17 17 17 17 17 17 17 17 17 17 16 16 16 16 16 16 16 16 16 15 15 15 15 15 15 15 15 14 14 13 13 13 12 12 12 12 11
17 17 17 17 17 17 17 17 17 17 17 17 17 17 17 17 17 16 16 16 16 16 16 16 15 15 15 15 15 14 14 14 14 13 13 12 12 12 12 12 11 11
16 16 16 16 16 16 16 16 16 16 16 16 16 16 16 16 16 16 16 16 16 16 15 15 15 15 14 15 14 14 14 14 13 12 12 12 11 11 11 11 11 10
16 16 16 16 16 16 16 16 16 16 16 16 16 16 16 16 16 16 16 16 16 16 15 15 15 14 14 14 14 13 13 13 12 11 11 11 11 11 10 10 10 10
16 16 16 16 16 16 16 16 15 16 16 15 15 15 15 16 16 16 16 16 16 16 15 14 14 13 13 13 12 12 12 11 11 11 10 10 10 10 10 10 10 10
16 16 16 16 16 15 15 15 15 15 15 15 15 15 15 15 15 16 16 16 16 15 14 14 13 12 11 11 11 11 11 10 10 10 10 10 10 10 10 10 10 10
15 15 15 15 15 15 15 15 15 15 15 15 15 15 15 15 15 15 14 14 13 13 13 13 12 11 10 10 10 10 10 10 10 10 10 10 10 10 9 10 10 10
15 15 15 15 15 15 15 14 14 14 14 14 14 14 14 14 14 13 12 11 11 11 11 11 11 9 9 9 10 9 9 9 9 9 9 9 9 9 9 9 9 9

ECMWFNIL_925_temp_033.txt.gz
Temp
19 19 19 19 18 18 18 18 18 18 17 17 17 17 17 17 16 16 16 16 16 16 16 16 16 16 15 15 15 15 15 15 14 14 15 15 14 14 14 14 14 14
19 19 19 19 19 18 18 18 18 18 18 18 17 17 17 17 17 16 16 16 16 16 16 16 16 16 15 15 15 15 15 15 14 14 14 14 14 14 14 14 14 14
19 19 19 19 19 19 18 18 18 18 18 18 18 17 17 17 17 17 16 16 16 16 16 16 16 15 15 15 15 15 15 15 14 14 14 14 14 14 14 14 14 14
19 19 19 19 19 19 19 19 18 18 18 18 18 18 17 17 17 17 16 16 16 16 16 15 16 15 15 15 15 15 15 15 14 14 14 14 14 14 14 14 14 14
19 19 19 19 19 19 19 19 19 19 19 18 18 18 18 17 17 17 17 16 16 16 16 15 15 15 15 15 15 15 15 15 14 14 14 14 14 14 14 14 14 14
19 19 19 19 19 19 19 19 19 19 19 19 18 18 18 18 17 17 17 17 16 16 16 15 15 15 15 15 15 15 15 15 15 14 14 14 14 14 14 14 14 14
19 19 19 19 19 19 19 19 19 19 19 18 18 18 18 18 18 17 17 17 16 16 16 16 15 15 15 15 15 15 15 15 15 15 15 14 14 14 14 14 14 14
18 19 19 19 19 19 19 19 19 19 19 18 18 18 18 18 18 18 17 17 17 16 16 16 16 15 15 15 15 15 15 15 15 15 15 14 14 14 14 14 14 14
17 18 18 18 19 18 18 18 18 18 18 18 18 18 18 18 17 17 17 16 16 16 16 16 16 16 16 15 15 15 15 15 15 15 15 15 15 14 14 14 14 14
16 16 16 17 17 17 17 17 17 18 18 18 18 18 18 17 17 17 16 16 16 16 16 15 15 15 15 15 15 15 15 15 15 15 15 15 15 15 14 14 14 14
16 16 16 16 16 16 17 17 17 17 17 17 17 17 17 17 16 16 16 16 16 16 16 15 15 15 15 15 15 15 15 15 15 15 15 15 15 15 14 14 14 14
16 16 16 16 16 16 17 17 17 17 17 17 17 17 17 17 17 17 17 17 16 16 16 15 15 15 15 15 15 15 15 15 15 15 15 15 15 15 15 14 14 14
16 16 16 16 16 16 16 17 17 17 17 17 17 17 16 16 16 16 16 16 16 16 16 15 15 15 15 15 15 15 15 15 15 15 15 15 15 15 15 14 14 14
16 16 16 16 16 16 16 16 16 16 17 17 16 16 16 16 15 15 16 16 16 16 16 16 15 15 14 14 15 15 15 15 15 15 15 15 15 15 15 14 14 14
17 16 17 17 17 17 16 16 16 17 17 16 16 16 16 16 15 15 15 15 15 15 16 16 15 15 15 15 15 15 15 15 15 15 15 15 15 15 14 14 14 14
17 17 17 17 17 17 17 17 17 17 17 17 17 16 16 16 16 16 15 15 15 15 15 15 15 15 15 15 15 15 15 14 15 15 15 15 15 14 14 14 14 13
17 17 17 17 17 17 17 17 17 17 17 17 17 16 16 16 16 16 16 15 15 15 15 15 15 15 15 15 15 15 14 14 14 14 14 15 15 14 14 14 13 13
17 17 17 17 17 17 17 17 17 17 16 16 16 16 16 16 16 16 16 16 15 15 15 15 15 15 15 15 15 15 15 14 14 14 14 14 14 14 14 13 13 13
16 17 17 17 17 17 17 17 16 16 16 16 16 16 16 16 16 16 16 16 16 16 15 15 15 15 15 15 15 15 15 14 14 14 13 13 14 14 14 13 13 12
16 16 16 16 16 16 16 16 16 16 16 16 16 16 16 16 16 16 16 16 16 16 16 15 15 15 15 15 15 15 14 14 13 13 13 13 14 13 13 13 12 12
16 16 16 16 16 16 16 16 16 16 16 16 16 16 16 16 16 16 16 16 16 16 16 15 15 15 15 15 15 15 14 13 13 13 13 13 13 13 12 12 12 12
16 16 16 16 16 16 16 16 15 15 15 15 15 15 15 15 15 15 15 15 15 15 15 15 15 15 15 15 15 14 13 13 13 13 13 12 12 12 11 11 11 11
16 16 16 16 16 15 15 15 15 15 15 15 15 15 15 15 15 15 15 15 15 15 15 15 15 15 15 15 14 13 13 13 13 12 12 11 11 11 11 11 10 10
15 15 15 15 15 15 15 15 15 15 15 15 15 15 15 15 15 14 14 14 14 15 15 14 14 14 14 14 14 13 12 12 12 11 11 10 10 10 10 10 10 10
15 15 15 15 15 15 15 15 15 15 15 14 14 14 14 14 14 14 14 13 13 14 14 13 13 13 12 13 13 12 12 12 11 11 10 10 10 10 10 9 9 9
14 14 14 14 14 14 14 14 14 14 14 14 14 14 14 14 13 13 12 12 12 12 12 12 12 12 11 11 11 11 11 11 10 10 10 9 9 9 9 9 9 9

ECMWFNIL_925_temp_036.txt.gz
Temp
18 18 18 18 18 17 17 17 17 17 17 17 17 17 17 16 16 16 16 16 16 16 16 16 15 15 15 15 15 15 15 14 14 14 14 14 14 14 14 14 14 14
18 18 18 18 18 17 17 17 17 17 17 17 17 17 17 17 16 16 16 16 16 16 16 16 15 15 15 15 15 15 15 15 14 14 14 14 14 14 14 14 14 14
18 18 18 18 18 17 17 17 17 17 17 17 17 17 17 17 17 16 16 16 16 16 16 16 16 15 15 15 15 15 15 15 14 14 14 14 14 14 14 14 14 14
19 19 18 18 18 18 18 17 17 17 17 17 17 17 17 17 17 16 16 16 16 16 16 16 16 15 15 15 15 15 15 15 15 14 14 14 14 14 14 13 13 14
19 19 19 18 18 18 18 18 18 17 17 17 17 17 17 17 17 17 16 16 16 16 16 16 16 16 15 15 15 15 15 15 15 14 14 14 14 14 14 14 13 13
18 19 19 18 18 18 18 18 18 18 18 17 17 17 17 17 17 17 17 17 17 17 16 16 16 16 16 15 15 15 15 15 15 15 14 14 14 14 14 14 13 13
18 18 18 18 17 18 18 18 18 18 18 18 18 17 17 17 17 17 17 17 17 17 17 16 16 16 16 16 16 15 15 15 15 15 15 14 14 14 14 14 14 14
18 18 18 18 17 17 18 18 18 18 18 18 18 18 18 17 17 17 17 17 17 17 16 16 16 16 16 16 16 16 15 15 15 15 15 15 14 14 14 14 14 14
17 17 17 17 17 17 17 17 17 18 18 18 18 18 18 17 17 17 17 17 16 16 16 16 16 16 16 16 16 16 16 15 15 15 15 15 15 14 14 14 14 14
17 16 17 17 17 17 17 17 17 17 17 17 18 18 17 17 17 17 17 16 16 16 16 16 16 16 16 16 16 16 16 16 15 15 15 15 15 15 14 14 14 14
16 15 15 15 16 16 16 17 17 17 17 16 16 16 17 17 17 17 16 16 16 16 16 16 16 16 15 15 15 16 15 15 15 15 15 15 15 15 15 14 14 14
15 15 14 13 14 15 16 17 17 16 16 15 14 15 16 17 16 16 16 16 16 16 16 16 16 16 16 15 15 15 15 15 15 15 15 15 15 15 15 15 15 14
16 16 15 15 15 15 16 16 16 16 15 15 14 14 16 16 16 16 16 16 16 16 16 15 16 16 16 15 15 15 15 15 15 15 15 15 15 15 15 15 15 14
16 16 16 16 16 16 16 16 16 16 15 14 13 14 15 16 16 16 16 15 15 15 15 15 15 15 15 15 15 15 15 15 14 14 14 14 14 15 15 15 15 14
16 16 16 16 16 16 16 16 15 15 15 14 14 15 16 16 16 16 15 15 15 15 15 15 15 15 15 15 15 16 15 15 14 14 14 14 14 14 15 15 15 14
16 16 16 16 16 16 16 16 16 16 16 15 16 16 15 15 15 15 15 15 15 15 15 14 14 15 15 15 15 15 15 15 15 14 14 14 14 14 14 15 14 14
16 16 16 16 16 16 16 16 16 16 16 16 16 16 15 15 15 15 15 15 15 15 14 14 14 14 14 14 14 14 14 14 14 14 14 14 14 14 14 14 14 14
16 16 16 16 16 16 16 16 16 16 16 16 16 16 16 16 16 15 15 15 15 15 15 15 15 15 15 15 14 14 14 14 14 14 13 14 14 14 14 14 14 14
16 16 16 16 16 16 16 16 16 16 16 16 16 16 16 16 16 15 15 15 15 15 15 15 15 15 15 15 15 15 14 14 13 13 13 13 13 13 13 14 14 14
16 16 16 16 16 16 16 16 16 16 16 15 15 15 15 15 15 15 15 15 15 15 15 15 15 15 15 15 15 15 14 14 14 14 13 13 13 13 13 13 13 13
16 16 16 16 16 16 16 16 16 16 15 15 15 15 15 15 15 15 15 15 15 15 15 15 15 15 15 15 15 15 14 14 14 14 13 13 13 13 13 12 13 13
15 15 15 15 15 15 16 15 15 15 15 15 15 15 15 15 15 15 15 15 15 14 14 15 15 15 15 15 15 15 15 14 13 13 13 13 12 12 12 12 12 12
15 15 15 15 15 15 15 15 15 15 15 15 15 15 15 15 14 14 14 14 14 14 14 14 14 14 14 14 14 14 14 14 13 12 12 12 11 11 11 11 11 11
14 14 14 14 14 14 14 14 14 15 15 14 14 14 14 14 14 14 14 14 14 14 14 14 14 14 14 14 14 13 13 13 13 12 11 11 11 10 10 10 10 10
14 14 14 14 14 14 14 14 14 14 14 14 14 14 14 14 14 13 13 13 13 13 13 13 13 13 13 13 13 12 12 12 12 12 11 10 10 10 10 10 10 9
14 14 14 14 14 14 14 13 13 14 14 13 13 14 13 13 13 13 13 13 13 13 13 12 12 12 12 12 12 11 11 11 11 11 10 10 9 9 9 9 9 9

ECMWFNIL_925_temp_042.txt.gz
Temp
18 18 18 18 19 18 17 16 16 16 16 15 16 16 16 15 15 15 15 15 15 14 14 14 14 14 14 14 15 15 14 14 14 14 14 14 14 14 14 13 13 14
18 18 18 18 18 18 17 17 17 16 16 15 16 16 16 15 15 15 15 15 15 15 14 14 14 14 14 14 15 15 15 15 14 14 13 14 13 13 13 13 13 13
18 18 18 18 18 18 18 17 17 17 16 16 16 16 15 15 15 15 15 15 15 15 15 14 14 14 14 14 14 14 15 15 15 14 14 14 13 13 13 13 13 13
17 18 18 18 19 19 18 17 17 17 17 16 16 16 16 16 16 16 16 16 15 15 15 15 14 14 14 14 14 14 14 14 14 14 14 14 14 14 13 13 13 13
18 18 18 18 18 18 18 17 18 18 17 17 17 16 16 16 16 16 16 16 16 15 15 15 15 14 14 14 14 14 14 14 14 14 14 14 14 14 14 14 13 13
18 18 18 18 18 18 18 18 18 18 18 17 17 17 16 16 16 16 16 16 16 15 15 15 15 14 14 14 14 14 14 14 14 14 14 14 14 14 14 14 14 14
18 17 17 17 18 18 18 18 18 17 17 17 17 17 16 16 16 16 16 16 16 16 15 15 15 15 14 14 14 14 14 14 14 14 14 14 14 14 14 14 14 14
17 17 16 17 17 18 17 17 17 17 16 17 17 17 16 16 15 15 15 15 15 15 15 15 14 14 14 14 14 14 14 14 14 14 14 14 14 14 14 13 13 14
17 16 16 17 17 17 17 16 16 16 16 16 16 17 16 16 15 15 15 15 15 15 15 14 14 14 14 14 14 13 14 14 14 14 14 14 14 14 14 14 14 14
16 16 16 17 16 16 16 16 16 16 16 16 16 16 16 15 15 16 16 15 15 15 14 14 14 15 15 15 14 13 13 13 14 14 14 14 14 14 14 14 14 14
16 16 16 16 16 15 15 16 16 16 16 16 16 16 15 15 15 15 15 15 15 15 15 15 15 15 15 15 14 14 14 13 13 13 14 14 14 14 14 14 14 14
16 16 16 16 15 15 15 16 16 15 15 15 15 15 15 15 15 15 15 15 14 14 15 15 15 15 14 14 14 14 14 14 14 13 14 14 14 14 14 14 14 14
15 16 16 15 15 14 15 15 15 15 15 15 15 15 15 15 16 15 15 14 14 14 14 15 15 15 14 14 14 14 14 14 14 13 13 14 14 14 14 14 14 14
15 15 15 15 14 14 15 15 15 15 15 15 15 15 15 15 15 15 14 14 14 14 14 14 14 14 14 14 14 14 14 14 13 13 13 13 14 14 14 14 14 14
15 15 15 15 14 15 15 15 15 15 15 14 14 14 14 14 14 14 14 14 14 14 14 14 14 14 14 14 14 14 13 13 13 12 13 13 13 13 13 14 14 14
15 15 15 15 14 15 15 15 15 15 15 14 14 14 14 14 14 14 13 13 13 13 14 14 14 14 14 13 13 13 13 12 12 12 13 13 13 13 13 13 13 13
15 15 15 15 15 15 15 15 15 15 15 14 14 14 14 14 14 14 13 13 13 13 13 13 13 13 13 13 13 13 12 12 13 13 13 13 12 13 13 13 13 13
15 15 15 15 15 15 15 15 15 15 15 14 14 14 14 14 14 14 14 13 13 13 14 14 14 13 13 14 13 13 13 13 13 13 13 13 13 13 13 13 13 13
15 15 15 15 15 15 15 15 15 15 15 15 15 14 14 14 14 14 14 14 14 14 14 14 14 14 14 14 14 14 14 14 14 13 13 13 13 13 13 12 12 12
15 15 15 15 15 15 15 15 15 15 15 15 14 14 14 14 14 14 14 14 14 14 14 14 14 14 14 14 14 14 14 14 14 14 13 13 13 13 12 12 12 12
15 15 15 15 15 15 15 15 15 14 14 14 14 14 14 14 14 14 14 14 14 14 14 13 13 13 13 13 13 14 14 14 14 14 13 13 13 13 13 12 12 12
15 15 15 14 14 14 14 14 14 14 14 14 14 14 14 14 14 14 14 14 13 13 13 13 13 13 13 13 13 13 13 13 14 13 13 13 13 13 13 12 12 12
14 14 14 14 14 14 14 14 14 13 13 13 13 13 13 13 13 13 13 13 13 13 13 13 13 13 12 12 12 12 13 13 13 13 12 12 12 12 12 12 12 11
14 14 14 14 14 14 13 13 13 13 13 13 13 13 13 13 13 13 13 13 13 13 13 13 13 12 12 12 12 12 12 12 12 12 11 11 11 11 11 11 11 10
14 14 13 13 13 13 13 13 13 13 13 13 13 13 13 13 12 12 12 12 12 13 13 13 12 12 12 12 12 12 12 12 12 11 11 11 10 10 10 10 10 10
13 13 13 13 13 13 13 13 13 13 13 13 13 13 13 13 12 12 12 12 12 12 12 12 12 12 12 12 11 12 11 11 11 11 10 10 10 9 9 9 9 9

ECMWFNIL_925_temp_045.txt.gz
Temp
18 18 18 18 18 17 17 16 16 16 16 15 15 15 15 15 15 15 15 14 14 14 14 14 14 14 14 14 14 14 14 14 14 14 14 14 14 14 14 14 14 14
18 18 18 18 18 17 17 17 16 16 16 16 15 15 15 15 15 15 15 15 14 14 14 14 14 14 14 14 14 14 14 13 13 13 14 14 14 14 14 13 13 13
18 18 18 18 18 17 17 16 16 16 16 16 15 15 15 15 15 15 15 15 15 14 14 14 14 14 14 14 14 14 14 13 13 13 13 13 13 13 13 13 13 13
17 18 18 18 18 18 17 17 16 16 16 16 16 16 15 15 15 15 15 15 14 14 14 14 14 14 14 14 14 14 14 13 13 13 13 13 13 13 13 13 13 13
17 18 18 18 18 18 17 17 17 16 17 16 16 16 16 15 15 15 15 15 14 14 14 14 14 14 14 14 14 14 14 13 13 13 13 13 13 13 13 13 13 13
17 17 18 18 18 17 17 17 17 17 16 16 16 16 16 16 16 16 15 15 15 14 14 14 14 14 14 14 14 14 14 13 13 13 13 13 13 13 13 13 13 13
17 17 18 18 18 17 17 17 17 17 17 16 16 16 16 16 16 16 16 15 15 15 15 14 14 14 14 14 14 14 14 14 13 13 13 13 13 13 13 13 13 13
17 17 17 17 17 17 17 17 17 17 17 17 16 16 16 16 16 16 16 16 15 15 15 15 14 14 14 14 14 14 14 14 14 14 13 13 13 13 13 13 13 13
16 16 16 17 17 17 17 16 17 17 17 17 17 16 16 16 16 16 16 15 15 15 15 14 14 14 14 14 14 14 14 14 14 14 14 13 13 13 13 13 13 13
16 16 16 16 16 17 17 16 16 17 17 17 17 16 16 16 16 16 16 16 15 15 15 15 14 14 14 14 14 14 14 14 14 14 14 14 13 13 13 13 13 13
16 15 15 15 15 16 17 16 16 17 17 17 17 16 16 16 16 16 16 16 16 16 15 15 15 14 14 15 15 14 14 14 14 14 14 14 14 14 13 13 13 13
15 15 15 15 15 16 16 16 16 17 17 16 16 16 16 16 16 16 16 16 16 16 16 15 15 14 14 15 14 14 14 14 14 14 14 14 14 13 13 13 13 13
15 15 15 15 15 16 15 15 16 16 16 16 16 16 16 16 16 16 16 16 16 15 15 15 15 15 14 14 14 14 14 14 14 14 14 14 14 13 13 13 13 13
15 15 15 15 15 15 14 15 15 16 16 16 16 16 15 15 15 15 15 15 15 15 15 14 14 14 14 14 14 14 13 13 13 14 14 14 14 13 13 13 13 13
14 14 14 14 14 14 14 15 15 15 16 16 15 15 15 15 15 15 15 15 15 15 14 14 14 14 14 13 13 13 13 13 13 13 13 13 13 13 13 12 12 12
14 14 14 14 15 15 15 15 15 15 15 15 15 14 14 14 14 14 14 14 14 14 14 14 13 13 13 13 13 13 13 12 12 12 12 12 12 13 12 12 12 12
14 14 14 15 15 15 14 14 14 15 14 14 14 14 14 13 13 14 13 13 13 13 13 13 13 13 13 13 13 13 13 13 13 12 12 12 12 12 12 12 12 13
14 14 14 14 15 15 14 14 14 14 14 14 14 14 13 13 13 13 13 13 13 13 13 13 13 13 13 13 14 14 14 14 14 13 13 12 12 12 12 12 12 13
14 14 14 14 14 14 14 14 14 14 14 14 14 14 14 14 14 14 14 14 14 14 13 13 13 13 13 14 14 14 14 14 14 14 14 13 13 13 12 12 12 12
14 14 14 14 14 14 14 14 14 14 14 14 14 14 14 14 14 14 14 14 14 14 14 13 13 13 13 13 13 13 14 14 14 14 14 14 14 13 13 12 12 12
15 15 15 15 15 15 14 14 14 14 14 15 14 14 14 14 14 14 14 14 14 13 13 13 13 13 13 13 13 13 13 13 13 13 13 13 13 13 13 13 12 12
14 15 15 14 15 15 14 14 14 14 14 14 14 14 14 14 14 14 14 13 13 13 13 13 13 13 12 12 12 13 13 13 13 13 13 13 13 12 12 12 12 12
14 14 14 14 14 14 14 14 14 14 14 14 13 13 13 13 13 13 13 13 13 13 13 13 12 12 12 12 12 12 12 12 12 12 12 12 11 11 11 11 11 11
14 14 14 14 14 14 14 14 14 14 13 13 13 13 13 13 13 13 13 13 13 13 13 12 12 12 12 12 12 12 12 12 12 12 11 11 11 10 10 11 11 11
13 14 14 14 14 14 14 14 14 14 13 13 13 13 13 13 13 13 13 13 13 13 12 12 12 12 12 12 12 12 12 12 12 11 11 10 10 10 10 10 10 10
13 13 13 13 14 13 13 13 13 13 13 13 13 13 13 13 13 13 13 13 13 12 12 12 12 12 12 12 11 11 11 11 11 11 11 10 9 9 9 9 9 9

ECMWFNIL_925_temp_048.txt.gz
Temp
18 18 17 18 18 18 17 17 17 17 17 17 17 17 16 16 15 16 16 15 15 15 15 15 15 15 15 15 15 16 16 15 15 15 15 15 15 15 15 15 15 16
18 18 17 17 17 17 17 17 16 16 17 17 17 17 16 16 15 15 15 15 15 15 15 15 15 15 15 15 15 16 16 15 15 15 15 15 15 15 15 15 15 16
18 18 17 17 17 17 17 17 16 16 16 16 16 16 16 15 15 15 15 15 15 15 15 15 15 15 15 15 15 15 15 15 15 15 15 15 15 15 15 15 15 15
18 18 17 17 17 17 17 16 16 16 16 15 16 16 16 15 15 15 15 15 15 15 15 15 15 15 15 15 15 15 15 15 15 15 15 15 15 15 15 15 15 15
18 17 17 16 17 17 17 16 16 16 16 16 16 16 16 15 16 15 15 15 15 15 15 15 15 15 15 15 15 15 15 15 15 15 15 15 15 15 15 15 15 15
18 17 17 16 17 17 17 16 16 16 16 16 16 16 16 16 16 16 16 16 16 15 15 15 15 15 15 15 15 16 16 16 15 15 16 16 15 15 15 15 15 15
17 17 17 16 17 17 17 16 16 16 16 16 16 16 15 16 16 16 16 16 16 16 16 16 15 15 15 15 16 16 15 15 15 15 16 16 15 15 15 15 15 16
17 16 16 16 16 16 16 16 16 16 16 16 16 16 15 15 16 16 16 16 16 16 16 16 16 16 15 16 16 15 15 15 15 15 16 16 15 16 16 15 15 16
16 16 16 16 16 16 16 16 16 16 16 16 16 16 16 16 16 16 16 17 17 16 16 16 16 16 16 16 16 15 15 15 15 15 15 15 15 16 16 16 15 15
16 16 16 16 16 16 17 17 16 16 16 16 16 16 16 16 16 16 16 17 17 17 17 16 16 16 16 16 15 15 15 15 15 15 15 15 15 15 16 16 15 15
16 16 16 16 16 17 17 16 16 16 16 16 16 16 16 16 16 16 16 16 16 17 16 16 16 16 16 16 15 15 15 15 15 15 15 15 15 15 15 15 15 15
16 16 16 16 16 16 16 16 16 16 16 16 16 16 16 16 16 16 16 16 16 16 16 16 16 16 16 16 16 15 15 15 15 15 15 15 15 15 15 15 15 15
16 15 16 16 15 15 16 16 16 16 16 16 16 16 16 16 16 16 16 16 17 16 16 16 15 15 15 15 15 15 15 15 15 14 15 15 15 15 15 15 15 15
15 15 15 15 15 15 15 16 16 16 16 16 16 16 16 16 16 16 16 16 16 16 16 15 15 15 15 15 15 15 15 15 14 14 14 14 14 14 14 14 14 14
15 15 15 15 15 15 14 15 16 16 16 16 15 15 15 16 16 16 16 16 15 15 15 15 15 15 15 15 15 15 15 14 14 14 14 14 15 14 14 13 14 14
15 15 15 14 14 15 15 15 15 15 15 15 15 15 15 15 15 15 15 15 15 15 14 14 14 14 14 14 14 14 14 14 14 14 14 14 15 15 14 13 13 13
15 15 15 15 15 15 15 15 15 15 15 15 14 14 14 14 14 15 15 15 15 15 14 14 13 13 14 14 14 14 14 14 14 14 14 14 15 15 14 14 13 14
15 15 15 15 15 15 15 15 15 15 15 14 14 14 13 14 14 14 14 14 14 14 14 13 13 13 14 14 14 14 14 14 14 14 14 15 15 15 15 15 14 14
15 15 15 15 14 14 14 14 14 14 14 13 13 13 13 13 13 13 13 13 14 14 14 13 13 14 14 14 14 14 14 14 14 14 14 14 14 14 15 15 15 15
16 16 15 15 15 14 14 14 14 14 14 13 13 13 13 13 13 13 14 14 14 14 14 13 13 13 13 14 14 14 14 14 14 14 14 13 13 13 14 14 14 14
16 16 16 16 15 15 15 15 15 14 14 14 14 14 14 14 14 14 14 14 14 14 14 13 13 13 13 13 13 13 14 14 13 13 13 13 13 13 13 13 13 13
16 16 16 16 16 16 16 16 15 15 15 15 15 15 15 15 15 14 14 14 14 14 14 13 13 13 13 13 13 13 13 14 13 13 13 13 12 12 12 12 12 13
16 16 16 16 16 16 16 16 15 15 15 15 15 15 15 15 15 14 14 14 14 14 14 13 13 12 12 12 13 13 13 14 14 14 13 13 12 12 12 12 12 12
16 16 16 16 16 16 16 15 15 15 15 15 15 15 15 15 15 14 14 14 14 14 14 13 12 12 12 12 12 12 13 13 14 14 13 13 12 12 11 11 11 11
15 15 16 16 16 15 15 15 15 15 15 15 15 15 15 15 15 14 14 14 13 13 13 13 12 12 12 12 12 12 12 13 14 14 13 13 13 12 11 10 10 11
14 14 15 15 15 15 15 15 14 14 14 14 15 15 15 15 15 15 14 13 13 12 12 12 12 12 12 12 12 12 12 13 14 14 13 13 13 13 12 10 9 9